Regional Weather Roundup
Issued by NWS

Home | Current Version | Previous Version | Text Only | Print | Product List | Glossary Off
Versions: 1 2 3 4 5 6 7 8 9 10 11 12 13 14 15 16 17 18 19 20 21 22 23 24 25 26 27 28 29 30 31 32 33 34 35 36 37 38 39 40 41 42 43 44 45 46 47 48 49 50

000
ASUS43 KLSX 312207
RWRMO

WEATHER SUMMARY FOR MISSOURI
NATIONAL WEATHER SERVICE SPRINGFIELD MO
500 PM CDT FRI JUL 31 2015

NOTE: "FAIR" INDICATES FEW OR NO CLOUDS BELOW 12,000 FEET WITH NO
       SIGNIFICANT WEATHER AND/OR OBSTRUCTIONS TO VISIBILITY.
       CURRENT SKY AND/OR WEATHER CONDITIONS ARE NOT AVAILABLE FOR
       CHILLICOTHE AND FARMINGTON.

MOZ001>031-035>038-043-044-053-054-312300-
...NORTHERN AND WESTERN MISSOURI...

CITY           SKY/WX    TMP DP  RH WIND       PRES   REMARKS
KANSAS CTY INT MOSUNNY   87  67  51 W3        30.08F HX  90
KANSAS C DTWN  SUNNY     90  68  48 NW6       30.06F HX  94
LEE`S SUMMIT   SUNNY     90  60  36 CALM      30.08F
ST JOSEPH      SUNNY     88  72  58 VRB5      30.06F HX  94
CHILLICOTHE      N/A     90  71  53 NW5       30.06F HX  96
KIRKSVILLE     SUNNY     87  65  47 VRB6      30.06F

$$
MOZ066>068-077>081-088>096-101>105-312300-
...SOUTHWEST MISSOURI...

CITY           SKY/WX    TMP DP  RH WIND       PRES   REMARKS
SPRINGFIELD    SUNNY     88  55  32 SW9       30.10F
JOPLIN         SUNNY     90  63  40 S6        30.09F HX  91

$$
MOZ032>034-039>042-045>050-055>058-069>072-312300-
...CENTRAL MISSOURI...

CITY           SKY/WX    TMP DP  RH WIND       PRES   REMARKS
COLUMBIA       SUNNY     89  63  41 W7        30.07F HX  90
JEFFERSON CITY SUNNY     91  59  33 NW7       30.05F HX  90
ROLLA          SUNNY     88  56  33 W9        30.08F
SEDALIA        SUNNY     91  60  35 W7        30.08F HX  90
WHITEMAN AFB   SUNNY     91  56  30 VRB6      30.06F
WARRENSBURG    SUNNY     90  57  33 W7        30.07F
OSAGE BEACH    SUNNY     90  61  37 SW6       30.08F

$$
MOZ051-052-059>065-312300-
...EAST CENTRAL MISSOURI...

CITY           SKY/WX    TMP DP  RH WIND       PRES   REMARKS
ST LOUIS INTL  MOSUNNY   93  60  33 NW10      30.04F HX  93
SPIRIT OF STL  MOSUNNY   92  60  34 NW6       30.03F HX  91
ST CHARLES     SUNNY     90  62  39 NW5       30.03S HX  90

$$
MOZ072>076-082>087-097>100-106>115-312300-
...SOUTH CENTRAL AND SOUTHEAST MISSOURI...

CITY           SKY/WX    TMP DP  RH WIND       PRES   REMARKS
CAPE GIRARDEAU SUNNY     91  65  41 N8        30.04S HX  93
FARMINGTON     SUNNY     88  61  40 NW6       30.11F
POPLAR BLUFF   SUNNY     91  64  40 N6        30.04F HX  92
WEST PLAINS    SUNNY     89  58  34 W8        30.12F

$$


USA.gov is the U.S. government's official web portal to all federal, state and local government web resources and services.